Time,TemperatureF,DewpointF,PressureIn,WindDirection,WindDirectionDegrees,WindSpeedMPH,WindSpeedGustMPH,Humidity,HourlyPrecipIn,Conditions,Clouds,dailyrainin,SolarRadiationWatts/m^2,SoftwareType,DateUTC
2013-02-13 00:11:00,37.0,30.0,-100.00,South,178,6.0,11.0,75,-99.99,,,0.00,0.120000,,2013-02-13 08:11:00,
2013-02-13 01:11:00,37.0,31.0,-100.00,South,179,5.0,7.0,77,-99.99,,,0.00,0.120000,,2013-02-13 09:11:00,
2013-02-13 02:11:00,38.0,31.0,-100.00,SSW,196,7.0,10.0,74,-99.99,,,0.00,0.120000,,2013-02-13 10:11:00,
2013-02-13 03:11:00,38.0,31.0,-100.00,SSE,155,7.0,10.0,75,-99.99,,,-99.99,0.120000,,2013-02-13 11:11:00,
2013-02-13 04:11:00,40.0,32.0,-100.00,SSE,168,7.0,9.0,73,-99.99,,,0.00,0.120000,,2013-02-13 12:11:00,
2013-02-13 05:11:00,39.0,32.0,-100.00,South,174,7.0,9.0,75,-99.99,,,0.00,0.120000,,2013-02-13 13:11:00,
2013-02-13 06:11:00,38.0,32.0,-100.00,South,187,7.0,9.0,76,-99.99,,,0.00,0.120000,,2013-02-13 14:11:00,
2013-02-13 07:11:00,36.0,31.0,-100.00,SE,138,7.0,10.0,82,-99.99,,,0.00,0.120000,,2013-02-13 15:11:00,
2013-02-13 08:11:00,37.0,31.0,-100.00,SSE,165,7.0,8.0,78,-99.99,,,0.00,1.630000,,2013-02-13 16:11:00,
2013-02-13 09:11:00,39.0,32.0,-100.00,South,170,7.0,10.0,76,-99.99,,,0.00,45.669998,,2013-02-13 17:11:00,
2013-02-13 10:11:00,41.0,32.0,-100.00,SSE,168,6.0,9.0,71,-99.99,,,0.00,160.270004,,2013-02-13 18:11:00,
2013-02-13 12:11:00,43.0,33.0,-100.00,SSW,204,3.0,4.0,66,-99.99,,,0.00,91.349998,,2013-02-13 20:11:00,
2013-02-13 13:11:00,45.0,33.0,-100.00,South,177,3.0,5.0,63,-99.99,,,0.00,128.660004,,2013-02-13 21:11:00,
2013-02-13 14:11:00,46.0,33.0,-100.00,SSE,168,4.0,6.0,61,-99.99,,,0.00,146.550003,,2013-02-13 22:11:00,
2013-02-13 15:11:00,47.0,34.0,-100.00,South,186,4.0,5.0,62,-99.99,,,0.00,132.610001,,2013-02-13 23:11:00,
2013-02-13 16:11:00,48.0,33.0,-100.00,SW,220,4.0,7.0,54,-99.99,,,0.00,186.880005,,2013-02-14 00:11:00,
2013-02-13 17:11:00,49.0,31.0,-100.00,NNW,342,3.0,5.0,50,-99.99,,,0.00,186.419998,,2013-02-14 01:11:00,
2013-02-13 18:11:00,46.0,32.0,-100.00,NNW,345,11.0,14.0,57,-99.99,,,-99.99,35.099998,,2013-02-14 02:11:00,
2013-02-13 19:11:00,43.0,32.0,-100.00,North,350,9.0,14.0,64,-99.99,,,-99.99,0.000000,,2013-02-14 03:11:00,
2013-02-13 20:11:00,38.0,31.0,-100.00,NNW,332,3.0,5.0,74,-99.99,,,-99.99,0.000000,,2013-02-14 04:11:00,
2013-02-13 21:11:00,38.0,31.0,-100.00,ESE,103,5.0,8.0,76,-99.99,,,0.00,0.000000,,2013-02-14 05:11:00,
2013-02-13 22:11:00,36.0,30.0,-100.00,East,91,2.0,4.0,80,-99.99,,,-99.99,0.000000,,2013-02-14 06:11:00,
2013-02-13 23:11:00,32.0,29.0,-100.00,SE,145,1.0,3.0,88,-99.99,,,0.00,0.120000,,2013-02-14 07:11:00,